Home > Weather > Juneau > Past weeks

Flag for USA Past Weather in Juneau, Alaska, USA — Yesterday and Last 2 Weeks

Now
58 °F

Light rain. Cloudy.


Feels Like: 58 °F
Forecast: 47 / 63 °F
Wind: No wind

Location: Juneau International Airport

Current Time: May 29, 2016 at 1:11:08 PM

Latest Report: May 29, 2016 at 11:53 AM


Visibility: 10 mi

Pressure: 29.97 "Hg

Humidity: 58%

Dew Point: 43 °F

Location of JuneauLocation

Past Weather in Juneau — Graph

°F

Juneau Temperature Yesterday

Maximum temperature yesterday: 67 °F (at 1:53 PM)
Minimum temperature yesterday: 48 °F (at 3:53 AM)
Average temperature yesterday: 60 °F

High & Low Weather Summary for the Past Weeks

 TemperatureHumidityPressure
High76 °F (May 14, 5:53 PM)97% (May 26, 2:53 AM)30.20 "Hg (May 26, 2:53 AM)
Low39 °F (May 19, 3:53 AM)18% (May 14, 5:53 PM)29.75 "Hg (May 21, 9:53 PM)
Average55 °F67%29.98 "Hg
* Reported May 14 10:53 AM — May 29 10:53 AM, Juneau, Weather by CustomWeather, © 2016

Note: Actual official high and low records may vary slightly from our data, if they occured in-between our weather recording intervals... More about our weather records

Advertising

Juneau Weather History for the Previous 24 Hours

Scroll right to see more
 ConditionsComfort  
Time TempWeatherWind HumidityBarometerVisibility
10:53 AM
Sun, May 29
60 °FCloudy.5 mph53%29.95 "Hg10 mi
9:53 AM62 °FMostly cloudy.No wind48%29.94 "Hg10 mi
8:53 AM57 °FOvercast.5 mph62%29.94 "Hg10 mi
7:53 AM57 °FMore clouds than sun.5 mph64%29.93 "Hg10 mi
6:53 AM53 °FCloudy.3 mph69%29.93 "Hg10 mi
5:53 AM53 °FMostly cloudy.3 mph66%29.93 "Hg10 mi
4:53 AM52 °FMostly cloudy.5 mph72%29.92 "Hg10 mi
3:53 AM52 °FMostly cloudy.No wind72%29.91 "Hg10 mi
2:53 AM51 °FPassing clouds.No wind80%29.91 "Hg10 mi
1:53 AM51 °FPassing clouds.6 mph77%29.91 "Hg10 mi
12:53 AM54 °FPassing clouds.No wind67%29.90 "Hg10 mi
11:53 PM
Sat, May 28
56 °FPassing clouds.No wind62%29.90 "Hg10 mi
10:53 PM57 °FPassing clouds.3 mph55%29.90 "Hg10 mi
9:53 PM60 °FBroken clouds.6 mph46%29.90 "Hg10 mi
8:53 PM62 °FScattered clouds.3 mph43%29.89 "Hg10 mi
7:53 PM64 °FScattered clouds.8 mph37%29.89 "Hg10 mi
6:53 PM66 °FPassing clouds.8 mph33%29.89 "Hg10 mi
5:53 PM66 °FPassing clouds.10 mph33%29.90 "Hg10 mi
4:53 PM67 °FPassing clouds.13 mph31%29.90 "Hg10 mi
3:53 PM67 °FPassing clouds.13 mph31%29.90 "Hg10 mi
2:53 PM67 °FPassing clouds.15 mph31%29.92 "Hg10 mi
1:53 PM67 °FPassing clouds.14 mph31%29.92 "Hg10 mi
Weather by CustomWeather, © 2016

See weather overviewHow to use our weather pages